Location: R�o Medio
(42.4667°N, 3.0167°W)
Time: 09:18:24
(UTC+00:00)

Cosmos 540 Rocket - Pass Details

Date: 27 February 2020
Orbit: 739 x 754 km, 74.1° (Epoch: 27 March)

Event Time Altitude Azimuth Distance (km) Brightness Sun altitude
Rises 19:24:39 0° 183° (S) 3,165 6.7 -16.6°
Reaches altitude 10° 19:27:03 10° 178° (S) 2,248 5.9 -17.1°
Maximum altitude 19:31:57 49° 104° (ESE) 955 3.6 -18.0°
Drops below altitude 10° 19:36:54 10° 30° (NNE) 2,273 5.7 -18.9°
Sets 19:39:19 0° 26° (NNE) 3,204 6.5 -19.3°
